SCP
0 0 0 0 0 0 0 0 0 0 0 0 0 0 0 0 0 0 0 0 0 0 0 0 0 0 0 0 0 0 0 0 0 0 0 0 0 0 0 0 0 0 0 0
0 0 0 0 0 0 0 0 0 0 0 0 0 0 0 0 0 0 0 0 0 0 0 0 0 0 0 0 0 0 0 0 0 0 0 0 0 -0 -0 -0 -0 0 0 0
0 0 0 0 0 0 0 0 0 0 0 0 0 0 0 0 0 0 0 0 0 0 0 0 0 0 0 0 0 0 0 0 0 0 0 0 0 -0 -0 0 0 0 0 0
0 0 0 0 0 0 0 0 0 0 0 0 0 0 0 0 0 0 0 0 0 0 0 0 0 0 0 0 0 0 0 0 0 0 0 0 -0 -0 0 0 0 0 0 0
0 0 0 0 0 0 0 0 0 0 0 0 0 0 0 0 0 0 0 0 0 0 0 0 0 0 0 0 0 0 0 0 0 0 0 0 0 0 0 0 0 0 0 0
0 0 0 0 0 0 0 0 0 0 0 0 0 0 0 0 0 0 0 0 0 0 0 0 0 0 0 0 0 0 0 0 0 0 0 0 0 0 0 0 0 0 0 0
0 0 0 0 0 0 0 0 0 0 0 0 0 0 0 0 0 0 0 0 0 0 0 0 0 0 0 0 0 0 0 0 0 0 0 0 0 0 0 0 0 0 0 0
0 0 0 0 0 0 0 0 0 0 0 0 0 0 0 0 0 0 0 0 0 0 0 0 0 0 0 0 0 0 0 0 0 0 0 0 0 0 0 0 0 0 0 0
0 0 0 0 0 0 0 0 0 0 0 0 0 0 0 0 0 0 0 0 0 0 0 0 0 0 0 0 0 0 0 0 0 0 0 0 0 0 0 0 0 0 0 0
0 0 0 0 0 0 0 0 0 0 0 0 0 0 0 0 0 0 0 0 0 0 0 0 0 0 0 0 0 0 0 0 0 0 0 0 0 0 0 0 0 0 0 0
0 0 0 0 0 0 0 0 0 0 0 0 0 0 0 0 0 0 0 0 0 0 0 0 0 0 0 0 0 0 0 0 0 0 0 0 0 0 0 0 0 0 0 0
0 0 0 0 0 0 0 0 0 0 0 0 0 0 0 0 0 0 0 0 0 0 0 0 0 0 0 0 0 0 0 0 0 0 0 0 0 0 0 0 0 0 0 0
0 0 0 0 0 0 0 0 0 0 0 0 0 0 0 0 0 0 0 0 0 0 0 0 0 0 0 0 0 0 0 0 0 0 0 0 0 0 0 0 0 0 0 0
0 0 0 0 0 0 0 0 0 0 0 0 0 0 0 0 0 0 0 0 0 0 -0 -0 0 0 0 0 0 0 0 0 0 0 0 0 0 0 0 0 0 0 0 0
0 0 0 0 0 0 0 0 0 0 0 0 0 0 0 0 0 0 0 0 0 0 0 0 0 0 0 0 0 0 0 0 0 0 0 0 0 0 0 0 0 0 0 0
0 0 0 0 0 0 0 0 0 0 0 0 0 0 0 0 0 0 0 0 0 0 0 0 0 0 0 0 0 0 0 0 0 0 0 0 0 0 0 0 0 0 0 0
0 0 0 0 0 0 0 0 0 0 0 0 0 0 0 0 0 0 0 0 0 0 0 0 0 0 0 0 0 0 0 0 0 0 0 0 0 0 0 0 0 0 0 0
0 0 0 0 0 0 0 0 0 0 0 0 0 0 0 0 0 0 0 0 0 0 0 0 0 0 0 0 0 0 0 0 0 0 0 0 0 0 0 0 0 0 0 0
0 0 0 0 0 0 0 0 0 0 0 0 0 0 0 0 0 0 0 0 0 0 0 0 0 0 0 0 0 0 0 0 0 0 0 0 0 0 0 0 0 0 0 0
0 0 0 0 0 0 0 0 0 0 0 0 0 0 0 0 0 0 0 0 0 0 0 0 0 0 0 0 0 0 0 0 0 -0 -0 0 0 0 0 0 0 0 0 0
0 0 0 0 0 0 0 0 0 0 0 0 0 0 0 0 0 0 0 0 0 0 0 0 0 0 0 0 0 0 0 0 0 -0 -0 -0 0 0 0 0 0 0 0 0
0 0 0 0 0 0 0 0 0 0 0 0 0 0 0 0 0 0 0 0 0 0 0 0 0 0 0 0 0 0 0 0 0 0 0 -0 0 0 0 0 0 0 0 0
0 0 0 0 0 0 0 0 0 0 0 0 0 0 0 0 0 0 0 0 0 0 0 0 0 0 0 0 0 0 0 0 0 0 0 0 0 0 0 0 0 0 0 0
0 0 0 0 0 0 0 0 0 0 0 0 0 0 0 0 0 0 0 0 0 0 0 0 0 0 0 0 0 0 0 0 0 0 0 0 0 0 0 0 0 0 0 0
0 0 0 0 0 0 0 0 0 0 0 0 0 0 0 0 0 0 0 0 0 0 0 0 0 0 0 0 0 0 0 0 0 0 0 0 0 0 0 0 0 0 0 0
-0 -0 0 0 0 0 0 0 0 0 0 0 0 0 0 0 0 0 0 0 0 0 0 0 0 0 0 0 0 0 0 0 0 0 0 0 0 0 0 0 0 0 0 0
Wind_Speed_500mb
2 5 15 24 13 6 10 7 8 4 4 2 11 17 38 25 32 21 16 16 16 11 24 42 35 44 44 43 40 34 28 23 22 23 24 24 22 23 31 40 45 49 49 49
6 15 14 11 10 7 6 6 10 6 3 4 6 24 35 9 5 6 14 12 6 5 19 45 39 44 47 44 37 29 23 20 20 21 21 21 27 34 39 44 46 48 48 50
14 4 8 11 8 11 8 12 9 9 2 3 10 14 9 2 2 7 8 6 5 17 32 44 51 50 46 39 31 23 21 19 16 13 15 22 30 37 41 43 41 41 45 49
12 6 11 9 10 13 8 12 10 10 7 8 4 10 9 6 2 5 7 11 17 30 40 48 52 50 41 34 29 25 20 14 10 12 18 26 35 41 40 42 46 48 49 51
9 12 9 7 9 14 6 7 9 5 8 7 6 4 12 1 6 6 7 16 26 35 44 49 49 44 39 33 26 20 15 11 11 17 26 35 36 34 38 41 44 46 48 49
8 2 7 6 6 3 17 12 12 8 6 4 10 10 9 10 10 7 8 19 30 40 47 48 46 43 36 28 21 16 14 14 18 25 33 28 27 31 36 42 45 48 50 53
3 8 6 8 11 7 4 10 3 5 3 12 2 3 15 8 9 12 18 29 35 41 46 48 44 37 28 21 16 12 11 16 24 24 19 21 25 31 39 45 50 54 58 60
11 8 15 9 9 14 12 11 10 15 9 7 7 13 11 9 5 17 29 38 42 43 44 41 38 30 20 13 11 10 15 16 10 12 15 21 27 35 41 46 52 56 59 61
10 5 3 1 3 6 11 11 6 13 2 5 6 12 13 7 6 13 29 36 42 40 37 33 29 22 14 11 10 9 5 4 7 13 20 28 36 42 47 51 53 55 57 59
7 4 1 2 2 3 5 8 5 3 4 7 7 10 9 12 15 13 16 34 38 39 36 27 22 16 11 8 6 3 3 8 14 21 27 32 36 39 43 47 50 54 56 58
7 12 3 6 13 16 6 4 4 2 5 8 2 11 9 20 19 21 21 45 46 41 34 26 20 16 14 11 6 2 7 11 16 21 25 28 30 35 40 46 52 56 58 55
9 4 9 16 1 4 3 14 11 6 9 3 2 12 1 14 20 32 35 40 37 32 28 27 25 22 18 12 6 2 4 9 15 20 23 25 30 36 42 48 53 57 59 49
7 5 1 11 8 7 9 10 8 5 4 13 10 10 7 12 23 36 39 38 35 31 33 32 29 24 18 14 10 7 4 8 14 19 21 23 29 37 44 50 54 56 55 49
6 4 13 15 10 8 10 11 21 19 9 11 22 6 2 12 30 26 36 37 33 35 37 34 31 29 25 20 14 9 6 9 14 16 19 23 29 36 43 49 52 53 51 51
9 10 6 6 3 2 6 8 18 29 25 16 14 21 14 28 29 52 59 41 33 37 42 38 38 34 27 20 14 8 5 5 11 16 21 25 29 34 41 47 51 52 51 53
2 8 6 7 5 6 8 16 17 21 8 16 8 20 9 20 31 23 48 55 45 45 45 35 46 37 28 22 15 9 5 5 14 20 23 27 30 34 41 46 51 54 54 58
4 7 6 18 3 6 9 30 19 12 13 16 21 18 12 12 18 47 66 61 56 44 46 46 55 39 31 23 15 9 3 9 17 23 26 29 33 36 41 45 50 54 57 60
10 6 5 7 6 22 15 6 9 30 28 21 14 13 15 18 49 55 52 49 42 40 35 43 55 41 35 25 17 10 1 9 16 23 28 30 34 37 40 45 49 53 56 59
30 15 8 8 8 11 14 10 14 16 16 22 35 34 29 19 12 43 53 54 56 44 42 46 50 43 34 24 16 10 2 6 15 23 29 33 35 38 41 43 47 51 55 57
24 27 20 4 9 18 19 20 33 11 27 20 32 27 22 23 6 15 31 32 40 39 35 51 51 45 32 26 20 14 5 5 13 23 32 36 36 38 42 44 46 49 51 53
7 13 31 32 28 15 13 8 25 14 12 13 27 31 24 13 20 13 13 19 28 35 46 52 48 35 29 27 21 12 7 12 19 25 33 38 38 39 42 43 45 46 48 50
17 11 17 14 19 37 14 7 25 10 12 13 17 24 32 41 30 24 15 21 37 45 46 45 37 28 27 27 22 19 21 23 23 23 27 34 38 39 41 42 42 43 45 47
15 21 11 14 9 7 29 19 39 29 31 26 26 28 36 33 31 26 38 36 35 34 35 31 27 28 32 33 36 38 31 30 30 29 28 31 40 40 43 43 42 41 42 44
9 2 14 17 23 16 40 24 35 34 40 32 37 44 32 34 37 50 40 37 35 33 32 29 30 32 33 33 36 41 42 45 42 36 35 36 41 46 46 47 44 42 40 41
22 21 14 12 12 24 49 62 65 62 43 38 43 42 38 41 56 48 42 41 37 34 32 34 35 36 36 34 36 37 41 47 50 50 48 48 48 50 53 50 46 42 38 38
30 30 21 16 21 12 24 34 32 38 45 46 55 54 48 46 50 49 44 39 37 37 33 32 31 30 29 28 29 23 26 38 48 54 54 53 51 50 52 50 48 44 38 36
Wind_Direction_500mb
88 129 204 208 192 136 131 183 224 229 108 302 240 270 279 291 290 298 312 317 317 274 207 187 175 191 186 184 189 195 201 203 200 199 202 213 235 265 290 299 303 305 305 303
41 230 225 109 155 160 157 163 249 286 130 195 321 275 277 268 247 318 320 330 337 171 175 189 191 181 182 179 179 183 187 192 198 209 227 252 273 283 293 299 304 306 304 301
177 194 116 148 150 159 207 187 199 207 171 62 331 284 288 197 144 7 27 19 109 147 151 156 161 162 163 165 167 174 183 191 203 230 265 280 289 297 301 301 301 300 301 300
235 248 166 175 193 149 225 196 159 149 111 230 9 277 280 183 101 31 55 83 122 143 145 145 148 149 153 159 164 169 175 189 225 263 287 301 307 307 308 310 311 310 307 305
237 161 171 175 204 173 217 103 113 87 98 52 312 55 265 127 208 187 141 124 128 139 145 143 144 147 150 149 155 168 187 215 261 290 302 308 309 310 313 313 312 312 310 309
247 225 191 184 73 68 152 78 56 62 95 325 223 160 252 190 190 166 163 150 139 140 142 145 147 147 149 157 173 195 223 257 284 299 305 309 316 318 320 321 322 321 320 318
200 205 165 142 88 43 83 111 355 353 4 227 47 62 253 218 208 187 173 162 152 146 146 147 151 155 162 177 195 217 254 281 290 297 307 315 321 326 329 329 327 326 325 324
177 284 169 181 190 177 191 169 166 200 196 231 2 227 250 202 218 201 176 162 158 154 152 154 159 167 176 193 203 237 263 276 284 302 310 318 326 331 331 331 329 328 325 322
160 262 62 94 159 150 180 206 155 108 93 41 208 275 288 171 121 143 162 169 172 166 160 166 174 182 189 205 234 253 250 284 311 318 327 338 339 336 336 334 330 327 323 320
230 338 45 142 146 37 173 162 122 10 173 245 275 280 234 183 181 166 162 172 171 171 177 183 192 203 214 224 207 214 291 324 338 342 339 336 336 335 334 331 331 329 325 319
171 170 99 36 212 178 154 195 227 224 177 182 239 255 223 186 174 170 173 169 172 180 189 199 204 205 187 184 198 291 339 344 340 336 331 328 329 333 334 335 335 333 331 324
203 187 171 200 316 334 275 191 140 164 203 218 137 273 80 191 170 170 172 171 173 181 194 198 186 182 184 192 192 226 322 330 331 329 326 328 331 337 339 340 340 339 339 340
192 216 64 337 357 346 216 200 157 137 78 190 173 255 12 155 166 181 170 175 184 192 187 185 185 186 189 188 197 211 260 308 320 325 327 326 332 340 341 343 341 340 338 334
169 218 185 212 195 133 194 195 190 183 178 180 222 228 235 173 180 192 188 185 191 194 193 195 198 195 194 196 202 213 257 305 323 328 332 334 338 341 342 343 343 341 340 335
171 224 164 258 274 221 222 197 190 207 220 192 223 212 214 195 194 203 196 193 195 204 206 207 207 203 201 202 202 208 247 314 340 342 342 339 338 340 343 345 347 348 345 339
342 246 122 294 338 259 254 247 206 225 254 260 278 260 254 226 211 193 212 214 223 230 220 232 218 209 206 202 196 209 224 331 343 347 346 340 338 339 344 349 352 351 349 345
227 159 140 252 112 87 299 231 200 192 199 193 223 242 177 203 199 216 228 229 233 247 241 239 216 211 202 196 194 208 241 344 343 343 343 339 337 340 344 349 352 351 351 349
253 199 215 232 130 229 236 179 205 218 231 210 249 209 200 205 218 226 235 247 250 246 247 233 207 204 196 189 194 195 248 342 348 354 351 340 338 343 343 346 348 349 350 350
213 225 234 248 221 301 280 185 162 181 256 204 229 249 245 225 230 256 246 248 253 245 247 213 201 197 188 188 186 173 154 344 342 349 351 349 341 342 341 343 345 346 346 348
212 218 220 166 218 223 264 224 199 114 270 197 211 228 235 149 197 257 265 258 241 229 203 192 192 185 186 185 179 177 172 313 338 343 344 343 341 338 338 340 339 343 344 345
188 213 227 235 239 267 240 202 140 146 245 216 222 225 167 188 222 242 260 258 213 205 191 183 180 182 187 188 191 208 236 298 315 326 329 331 332 335 335 336 335 335 340 342
191 190 218 225 237 245 147 103 203 190 177 216 206 211 216 237 242 231 236 193 181 176 176 179 183 194 203 209 225 242 270 283 293 306 318 324 325 331 332 332 329 327 334 338
236 217 209 200 215 239 205 242 246 232 224 218 219 231 237 239 222 194 165 157 160 169 172 184 201 208 216 233 249 252 264 275 280 285 294 308 315 323 327 325 323 320 325 334
281 251 233 245 242 238 264 285 302 290 247 248 257 250 222 224 200 175 172 170 166 167 173 184 196 209 221 237 253 261 266 265 270 279 287 297 303 310 316 317 316 312 315 326
286 322 299 254 259 272 278 275 279 278 265 251 235 206 210 188 171 183 186 185 189 199 210 219 228 238 246 251 256 263 265 269 262 273 281 288 293 297 302 307 309 307 306 313
257 254 245 253 283 246 272 278 300 305 296 271 239 215 212 203 205 206 201 209 217 224 227 240 252 257 260 264 270 271 271 266 268 274 281 285 287 287 289 296 303 301 299 299
Wind_Speed_850mb
2 5 15 24 13 6 10 7 8 4 4 2 11 17 38 25 32 21 16 16 16 11 24 42 35 44 44 43 40 34 28 23 22 23 24 24 22 23 31 40 45 49 49 49
6 15 14 11 10 7 6 6 10 6 3 4 6 24 35 9 5 6 14 12 6 5 19 45 39 44 47 44 37 29 23 20 20 21 21 21 27 34 39 44 46 48 48 50
14 4 8 11 8 11 8 12 9 9 2 3 10 14 9 2 2 7 8 6 5 17 32 44 51 50 46 39 31 23 21 19 16 13 15 22 30 37 41 43 41 41 45 49
12 6 11 9 10 13 8 12 10 10 7 8 4 10 9 6 2 5 7 11 17 30 40 48 52 50 41 34 29 25 20 14 10 12 18 26 35 41 40 42 46 48 49 51
9 12 9 7 9 14 6 7 9 5 8 7 6 4 12 1 6 6 7 16 26 35 44 49 49 44 39 33 26 20 15 11 11 17 26 35 36 34 38 41 44 46 48 49
8 2 7 6 6 3 17 12 12 8 6 4 10 10 9 10 10 7 8 19 30 40 47 48 46 43 36 28 21 16 14 14 18 25 33 28 27 31 36 42 45 48 50 53
3 8 6 8 11 7 4 10 3 5 3 12 2 3 15 8 9 12 18 29 35 41 46 48 44 37 28 21 16 12 11 16 24 24 19 21 25 31 39 45 50 54 58 60
11 8 15 9 9 14 12 11 10 15 9 7 7 13 11 9 5 17 29 38 42 43 44 41 38 30 20 13 11 10 15 16 10 12 15 21 27 35 41 46 52 56 59 61
10 5 3 1 3 6 11 11 6 13 2 5 6 12 13 7 6 13 29 36 42 40 37 33 29 22 14 11 10 9 5 4 7 13 20 28 36 42 47 51 53 55 57 59
7 4 1 2 2 3 5 8 5 3 4 7 7 10 9 12 15 13 16 34 38 39 36 27 22 16 11 8 6 3 3 8 14 21 27 32 36 39 43 47 50 54 56 58
7 12 3 6 13 16 6 4 4 2 5 8 2 11 9 20 19 21 21 45 46 41 34 26 20 16 14 11 6 2 7 11 16 21 25 28 30 35 40 46 52 56 58 55
9 4 9 16 1 4 3 14 11 6 9 3 2 12 1 14 20 32 35 40 37 32 28 27 25 22 18 12 6 2 4 9 15 20 23 25 30 36 42 48 53 57 59 49
7 5 1 11 8 7 9 10 8 5 4 13 10 10 7 12 23 36 39 38 35 31 33 32 29 24 18 14 10 7 4 8 14 19 21 23 29 37 44 50 54 56 55 49
6 4 13 15 10 8 10 11 21 19 9 11 22 6 2 12 30 26 36 37 33 35 37 34 31 29 25 20 14 9 6 9 14 16 19 23 29 36 43 49 52 53 51 51
9 10 6 6 3 2 6 8 18 29 25 16 14 21 14 28 29 52 59 41 33 37 42 38 38 34 27 20 14 8 5 5 11 16 21 25 29 34 41 47 51 52 51 53
2 8 6 7 5 6 8 16 17 21 8 16 8 20 9 20 31 23 48 55 45 45 45 35 46 37 28 22 15 9 5 5 14 20 23 27 30 34 41 46 51 54 54 58
4 7 6 18 3 6 9 30 19 12 13 16 21 18 12 12 18 47 66 61 56 44 46 46 55 39 31 23 15 9 3 9 17 23 26 29 33 36 41 45 50 54 57 60
10 6 5 7 6 22 15 6 9 30 28 21 14 13 15 18 49 55 52 49 42 40 35 43 55 41 35 25 17 10 1 9 16 23 28 30 34 37 40 45 49 53 56 59
30 15 8 8 8 11 14 10 14 16 16 22 35 34 29 19 12 43 53 54 56 44 42 46 50 43 34 24 16 10 2 6 15 23 29 33 35 38 41 43 47 51 55 57
24 27 20 4 9 18 19 20 33 11 27 20 32 27 22 23 6 15 31 32 40 39 35 51 51 45 32 26 20 14 5 5 13 23 32 36 36 38 42 44 46 49 51 53
7 13 31 32 28 15 13 8 25 14 12 13 27 31 24 13 20 13 13 19 28 35 46 52 48 35 29 27 21 12 7 12 19 25 33 38 38 39 42 43 45 46 48 50
17 11 17 14 19 37 14 7 25 10 12 13 17 24 32 41 30 24 15 21 37 45 46 45 37 28 27 27 22 19 21 23 23 23 27 34 38 39 41 42 42 43 45 47
15 21 11 14 9 7 29 19 39 29 31 26 26 28 36 33 31 26 38 36 35 34 35 31 27 28 32 33 36 38 31 30 30 29 28 31 40 40 43 43 42 41 42 44
9 2 14 17 23 16 40 24 35 34 40 32 37 44 32 34 37 50 40 37 35 33 32 29 30 32 33 33 36 41 42 45 42 36 35 36 41 46 46 47 44 42 40 41
22 21 14 12 12 24 49 62 65 62 43 38 43 42 38 41 56 48 42 41 37 34 32 34 35 36 36 34 36 37 41 47 50 50 48 48 48 50 53 50 46 42 38 38
30 30 21 16 21 12 24 34 32 38 45 46 55 54 48 46 50 49 44 39 37 37 33 32 31 30 29 28 29 23 26 38 48 54 54 53 51 50 52 50 48 44 38 36
Wind_Direction_850mb
88 129 204 208 192 136 131 183 224 229 108 302 240 270 279 291 290 298 312 317 317 274 207 187 175 191 186 184 189 195 201 203 200 199 202 213 235 265 290 299 303 305 305 303
41 230 225 109 155 160 157 163 249 286 130 195 321 275 277 268 247 318 320 330 337 171 175 189 191 181 182 179 179 183 187 192 198 209 227 252 273 283 293 299 304 306 304 301
177 194 116 148 150 159 207 187 199 207 171 62 331 284 288 197 144 7 27 19 109 147 151 156 161 162 163 165 167 174 183 191 203 230 265 280 289 297 301 301 301 300 301 300
235 248 166 175 193 149 225 196 159 149 111 230 9 277 280 183 101 31 55 83 122 143 145 145 148 149 153 159 164 169 175 189 225 263 287 301 307 307 308 310 311 310 307 305
237 161 171 175 204 173 217 103 113 87 98 52 312 55 265 127 208 187 141 124 128 139 145 143 144 147 150 149 155 168 187 215 261 290 302 308 309 310 313 313 312 312 310 309
247 225 191 184 73 68 152 78 56 62 95 325 223 160 252 190 190 166 163 150 139 140 142 145 147 147 149 157 173 195 223 257 284 299 305 309 316 318 320 321 322 321 320 318
200 205 165 142 88 43 83 111 355 353 4 227 47 62 253 218 208 187 173 162 152 146 146 147 151 155 162 177 195 217 254 281 290 297 307 315 321 326 329 329 327 326 325 324
177 284 169 181 190 177 191 169 166 200 196 231 2 227 250 202 218 201 176 162 158 154 152 154 159 167 176 193 203 237 263 276 284 302 310 318 326 331 331 331 329 328 325 322
160 262 62 94 159 150 180 206 155 108 93 41 208 275 288 171 121 143 162 169 172 166 160 166 174 182 189 205 234 253 250 284 311 318 327 338 339 336 336 334 330 327 323 320
230 338 45 142 146 37 173 162 122 10 173 245 275 280 234 183 181 166 162 172 171 171 177 183 192 203 214 224 207 214 291 324 338 342 339 336 336 335 334 331 331 329 325 319
171 170 99 36 212 178 154 195 227 224 177 182 239 255 223 186 174 170 173 169 172 180 189 199 204 205 187 184 198 291 339 344 340 336 331 328 329 333 334 335 335 333 331 324
203 187 171 200 316 334 275 191 140 164 203 218 137 273 80 191 170 170 172 171 173 181 194 198 186 182 184 192 192 226 322 330 331 329 326 328 331 337 339 340 340 339 339 340
192 216 64 337 357 346 216 200 157 137 78 190 173 255 12 155 166 181 170 175 184 192 187 185 185 186 189 188 197 211 260 308 320 325 327 326 332 340 341 343 341 340 338 334
169 218 185 212 195 133 194 195 190 183 178 180 222 228 235 173 180 192 188 185 191 194 193 195 198 195 194 196 202 213 257 305 323 328 332 334 338 341 342 343 343 341 340 335
171 224 164 258 274 221 222 197 190 207 220 192 223 212 214 195 194 203 196 193 195 204 206 207 207 203 201 202 202 208 247 314 340 342 342 339 338 340 343 345 347 348 345 339
342 246 122 294 338 259 254 247 206 225 254 260 278 260 254 226 211 193 212 214 223 230 220 232 218 209 206 202 196 209 224 331 343 347 346 340 338 339 344 349 352 351 349 345
227 159 140 252 112 87 299 231 200 192 199 193 223 242 177 203 199 216 228 229 233 247 241 239 216 211 202 196 194 208 241 344 343 343 343 339 337 340 344 349 352 351 351 349
253 199 215 232 130 229 236 179 205 218 231 210 249 209 200 205 218 226 235 247 250 246 247 233 207 204 196 189 194 195 248 342 348 354 351 340 338 343 343 346 348 349 350 350
213 225 234 248 221 301 280 185 162 181 256 204 229 249 245 225 230 256 246 248 253 245 247 213 201 197 188 188 186 173 154 344 342 349 351 349 341 342 341 343 345 346 346 348
212 218 220 166 218 223 264 224 199 114 270 197 211 228 235 149 197 257 265 258 241 229 203 192 192 185 186 185 179 177 172 313 338 343 344 343 341 338 338 340 339 343 344 345
188 213 227 235 239 267 240 202 140 146 245 216 222 225 167 188 222 242 260 258 213 205 191 183 180 182 187 188 191 208 236 298 315 326 329 331 332 335 335 336 335 335 340 342
191 190 218 225 237 245 147 103 203 190 177 216 206 211 216 237 242 231 236 193 181 176 176 179 183 194 203 209 225 242 270 283 293 306 318 324 325 331 332 332 329 327 334 338
236 217 209 200 215 239 205 242 246 232 224 218 219 231 237 239 222 194 165 157 160 169 172 184 201 208 216 233 249 252 264 275 280 285 294 308 315 323 327 325 323 320 325 334
281 251 233 245 242 238 264 285 302 290 247 248 257 250 222 224 200 175 172 170 166 167 173 184 196 209 221 237 253 261 266 265 270 279 287 297 303 310 316 317 316 312 315 326
286 322 299 254 259 272 278 275 279 278 265 251 235 206 210 188 171 183 186 185 189 199 210 219 228 238 246 251 256 263 265 269 262 273 281 288 293 297 302 307 309 307 306 313
257 254 245 253 283 246 272 278 300 305 296 271 239 215 212 203 205 206 201 209 217 224 227 240 252 257 260 264 270 271 271 266 268 274 281 285 287 287 289 296 303 301 299 299